Powrót do katalogu

FENGYUN 1C DEB

AktywnyLEO
NORAD 32105·DEBRIS·🇨🇳 China

Wystrzelony May 10, 1999 z Taiyuan Satellite Launch Center

Loading…

Następne Przeloty (najbliższe 24 godziny)

TLE

NieaktualneSource: Space-Track

Epoka: Sep 7, 2026, 01:10 UTC

1 32105U 99025CQX 26250.04864581  .00002194  00000-0  25577-2 0  9991
2 32105 103.4615 334.6214 0398173 236.3239 119.9308 13.41255234633075

Śledź FENGYUN 1C DEB w czasie rzeczywistym z AllMySat

Download on the App Store